Location: Oulou
(10.7667°N, 12.5167°W)
Time: 16:09:16
(UTC+00:00)

Cosmos 1420 Rocket - Pass Details

Date: 20 September 2019
Orbit: 754 x 781 km, 74.0° (Epoch: 14 October)

Event Time Altitude Azimuth Distance (km) Brightness Sun altitude
Rises 20:12:00 0° 189° (S) 3,224 7.3 -21.5°
Reaches altitude 10° 20:14:22 10° 188° (S) 2,303 6.5 -22.1°
Maximum altitude 20:19:35 76° 102° (ESE) 795 3.8 -23.4°
Drops below altitude 10° 20:24:51 10° 17° (NNE) 2,319 6.4 -24.7°
Sets 20:27:14 0° 16° (NNE) 3,249 7.2 -25.2°
